Cloud_Cover
0 0 0 0 0 0 4 2 100 97 20 24 15 18 95 43 6 6 2 38 99 40 33 15 100 99 18 81 100 100 60 16 24
0 0 0 0 0 0 25 6 36 100 87 100 27 27 6 33 5 5 93 43 66 93 99 46 82 97 100 100 100 100 100 88 99
5 0 0 0 0 0 28 100 6 96 100 100 41 75 58 47 6 14 44 100 98 71 100 51 60 94 72 94 100 100 83 100 100
29 7 4 1 0 0 0 43 99 58 28 75 76 9 5 5 5 78 97 98 100 67 87 58 62 66 20 100 98 100 97 100 100
100 69 75 79 3 0 0 0 6 5 5 2 2 5 5 0 2 50 18 100 23 100 81 1 8 12 12 7 10 95 100 98 100
100 100 100 100 100 16 5 4 0 0 0 4 5 5 15 48 6 5 49 97 43 17 4 10 6 18 35 55 93 75 100 100 79
100 100 100 100 100 100 58 41 15 37 14 64 24 54 81 90 39 65 59 12 10 14 5 16 16 18 98 78 100 100 12 76 40
100 100 100 100 100 100 99 88 5 9 53 98 100 78 95 100 100 96 100 100 68 5 5 14 13 6 5 69 100 100 100 62 84
100 100 100 100 98 95 94 71 86 20 6 100 100 100 100 100 100 100 100 100 100 98 5 15 24 23 9 76 100 93 100 96 66
100 100 100 100 100 83 48 7 16 5 30 91 100 100 100 100 100 100 100 100 100 100 100 13 75 49 100 100 100 82 99 41 54
100 100 100 100 100 98 58 8 10 25 8 16 100 100 100 100 100 100 100 100 100 100 100 94 85 20 14 32 92 61 100 71 85
91 100 100 100 100 99 100 57 5 5 18 13 19 100 86 100 100 100 100 100 100 100 100 100 100 100 100 100 100 98 100 100 65
100 100 100 100 100 100 100 100 32 52 21 12 62 38 100 99 100 100 100 88 58 100 100 100 97 97 89 100 100 89 90 34 98
100 100 99 57 100 100 100 100 100 94 54 12 13 13 23 100 95 100 100 27 15 93 100 100 100 18 5 8 35 97 87 83 100
75 100 100 100 100 100 100 100 100 78 48 8 9 97 100 100 100 90 100 96 23 6 39 6 57 83 5 5 15 100 81 99 99
50 82 51 99 100 100 100 100 100 100 100 31 31 81 100 100 100 100 75 11 5 23 64 46 69 9 5 19 71 100 5 100 100
20 54 74 94 100 100 100 100 100 100 100 100 91 92 99 100 98 71 35 47 100 63 15 5 5 5 8 79 97 49 100 97 100
6 1 40 70 100 100 100 100 100 100 100 100 100 95 100 100 72 100 100 62 18 40 6 31 1 5 5 5 53 92 74 15 98
0 46 33 96 82 100 95 89 87 100 100 100 100 100 100 81 100 86 92 94 90 67 60 7 4 15 5 7 14 69 41 98 100
0 33 61 44 99 98 100 61 98 100 100 100 100 100 99 100 95 100 100 100 100 65 14 82 17 49 77 25 5 12 100 100 100